Weather History for Owen Roberts, Cayman Islands

Change the Weather History Date:

Friday, March 1, 2013

  Actual Average Record
Temperature  
Mean Temperature 76 °F -  
Max Temperature 84 °F 82 °F 86 °F (1998)
Min Temperature 69 °F 74 °F 64 °F (1999)
Cooling Degree Days 12    
Growing Degree Days 26 (Base 50)    
Moisture  
Dew Point 71 °F    
Average Humidity 76    
Maximum Humidity 100    
Minimum Humidity 63    
Precipitation  
Precipitation 0.00 in - - ()
Sea Level Pressure  
Sea Level Pressure 29.90 in    
Wind  
Wind Speed 2 mph ()    
Max Wind Speed 9 mph    
Max Gust Speed -    
Visibility 6.2 miles    
Events      
Averages and records for this station are not official NWS values.
T = Trace of Precipitation, MM = Missing Value Source: Averaged Metar Reports

Daily Weather History Graph

Daily Weather History Graph

Search for Another Location

Airport:

Trip Planner

Search our weather history database for the weather conditions in past years. The results will help you decide how hot, cold, wet, or windy it might be!

Date:

Astronomy

Mar. 01, 2013 Rise Set
Actual Time 6:44 AM EST 6:31 PM EST
Civil Twilight 6:22 AM EST 6:53 PM EST
Nautical Twilight 5:57 AM EST 7:18 PM EST
Astronomical Twilight 5:31 AM EST 7:44 PM EST
Moon 10:18 PM EST (3/1) 9:10 AM EST (3/1)
Length of Visible Light 12h 30m
Length of Day
11h 46m
Waning Gibbous, 83% of the Moon is Illuminated
Mar 1
Waning Gibbous
Mar 4
Last Quarter
Mar 11
New
Mar 19
First Quarter
Mar 27
Full

Hourly Weather History & Observations

Time (EST) Temp. Heat Index Dew Point Humidity Pressure Visibility Wind Dir Wind Speed Gust Speed Precip Events Conditions
6:00 AM 69.8 °F - 69.8 °F 100% 29.89 in - Calm Calm - N/A   Clear
6:55 AM 69.8 °F - 69.8 °F 100% 29.92 in - Calm Calm - N/A   Partly Cloudy
7:00 AM 70 °F - 70 °F 99% 29.92 in 6 mi Calm Calm - -  
7:50 AM 73.4 °F - 71.6 °F 94% 29.92 in - Calm Calm - N/A   Clear
8:53 AM 80.6 °F 84.6 °F 71.6 °F 74% 29.95 in - Variable 2.3 mph - N/A   Clear
9:54 AM 82.4 °F 87.2 °F 71.6 °F 70% 29.95 in 6.2 mi Variable 2.3 mph - N/A   Partly Cloudy
10:52 AM 82.4 °F 87.2 °F 71.6 °F 70% 29.95 in 6.2 mi NNE 4.6 mph - N/A   Partly Cloudy
12:00 PM 82.4 °F 87.2 °F 71.6 °F 70% 29.92 in 6.2 mi NE 9.2 mph - N/A   Scattered Clouds
12:51 PM 82.4 °F 86.3 °F 69.8 °F 66% 29.89 in 6.2 mi West 5.8 mph - N/A   Scattered Clouds
1:00 PM 82 °F - 72 °F 64% 29.91 in 6 mi West 5.8 mph - -   Partly Cloudy
2:00 PM 82.4 °F 87.2 °F 71.6 °F 70% 29.89 in 6.2 mi Variable 3.5 mph - N/A   Scattered Clouds
3:00 PM 80.6 °F 84.6 °F 71.6 °F 74% 29.86 in 6.2 mi NNE 3.5 mph - N/A   Scattered Clouds
4:00 PM 82.4 °F 87.2 °F 71.6 °F 70% 29.83 in 6.2 mi NE 3.5 mph - N/A   Partly Cloudy
5:00 PM 82.4 °F 87.2 °F 71.6 °F 70% 29.83 in 6.2 mi North 3.5 mph - N/A   Partly Cloudy
6:00 PM 80.6 °F 83.9 °F 69.8 °F 70% 29.86 in 6.2 mi SW 3.5 mph - N/A   Partly Cloudy
7:00 PM 80 °F - 70 °F 63% 29.87 in 6 mi SSW 4.6 mph - -   Partly Cloudy
7:00 PM 80.6 °F 83.9 °F 69.8 °F 70% 29.86 in 6.2 mi SSW 4.6 mph - N/A   Scattered Clouds
8:00 PM 78.8 °F - 69.8 °F 74% 29.89 in 6.2 mi Calm Calm - N/A   Partly Cloudy
9:00 PM 78.8 °F - 69.8 °F 74% 29.89 in 6.2 mi Calm Calm - N/A   Partly Cloudy
10:00 PM 78.8 °F - 69.8 °F 74% 29.92 in 6.2 mi Calm Calm - N/A   Partly Cloudy